Location: Ç?ral? Körfezi
(36.3984°N, 30.4829°E)
Time: 09:43:20
(UTC+00:00)

IKONOS-2 - Pass Details

Date: 04 August 2024
Orbit: 583 x 594 km, 98.2° (Epoch: 14 September)

Event Time Altitude Azimuth Distance (km) Brightness Sun altitude
Rises 17:37:21 0° 15° (NNE) 2,846 8.1 -7.6°
Reaches altitude 10° 17:39:32 10° 17° (NNE) 1,939 7.3 -7.9°
Maximum altitude 17:43:44 71° 102° (ESE) 631 4.4 -8.7°
Drops below altitude 10° 17:47:53 10° 187° (S) 1,919 6.9 -9.4°
Sets 17:50:03 0° 189° (S) 2,814 7.7 -9.8°
